Regional Weather Roundup
Issued by NWS

Home | Current Version | Previous Version | Graphics & Text | Print | Product List | Glossary On
Versions: 1 2 3 4 5 6 7 8 9 10 11 12 13 14 15 16 17 18 19 20 21 22 23 24 25 26 27 28 29 30 31 32 33 34 35 36 37 38 39 40 41 42 43 44 45
000
ASUS45 KSLC 091210
RWRUT

UTAH REGIONAL WEATHER ROUNDUP
NATIONAL WEATHER SERVICE SALT LAKE CITY UT
600 AM MDT WED JUL 09 2014

UTZ001>011-023>025-091300-

NORTHERN UTAH

CITY           SKY/WX    TMP DP  RH WIND       PRES   REMARKS
HILL AFB       PTCLDY    71  42  35 SE10      30.06R
LOGAN          CLEAR     57  51  80 CALM      30.02S
OGDEN          CLEAR     70  42  36 S14       30.02R
PROVO AIRPORT  MOCLDY    72  46  40 SE10      30.11R
SALT LAKE CITY MOCLDY    76  45  33 SE7       30.01S
VERNAL         PTCLDY    63  41  44 W7        30.14R
WENDOVER       MOCLDY    77  43  29 SE6       30.00R
HEBER CITY     CLOUDY    59  52  77 CALM      30.16F
WEST JORDAN    CLEAR     79  54  41 SE16      30.06R

$$

UTZ012>022-026-027-091300-

SOUTHERN UTAH

CITY           SKY/WX    TMP DP  RH WIND       PRES   REMARKS
BRYCE CANYON   CLOUDY    54  50  86 W8        30.34S
CEDAR CITY     CLOUDY    67  49  52 N5        30.18R
MILFORD        CLOUDY    72  50  45 S14       30.12F
MOAB/CYNLANDS  CLEAR     74  50  42 SE5       30.11S
PRICE          MOCLDY    73  46  38 E6        30.20R
ST GEORGE      CLOUDY    79  50  36 E8        30.03S
KANAB            N/A     63  55  77 NW6       30.21R

$$

REGIONAL REPORTS     COLORADO/ARIZONA

CITY           SKY/WX    TMP DP  RH WIND       PRES   REMARKS
CRAIG, CO      CLEAR     50  44  80 E5        30.22R
GRAND JUNCTION MOCLDY    72  47  40 E9        30.15R
RIFLE          PTCLDY    60  40  47 E5        30.21R
MONTROSE       MOCLDY    64  45  49 SE8       30.26R
CORTEZ         CLEAR     55  50  83 CALM      30.28R
PAGE, AZ       PTCLDY    71  55  56 CALM      30.12F
GRAND CANYON   PTCLDY    53  50  89 CALM      30.28S
KINGMAN        CLOUDY    71  60  68 SE12      30.05F
FLAGSTAFF      MOCLDY    53  49  86 CALM      30.32S

$$

REGIONAL REPORTS    NEVADA/IDAHO/WYOMING

CITY           SKY/WX    TMP DP  RH WIND       PRES   REMARKS
LAS VEGAS, NV  MOCLDY    80  58  46 VRB3      29.91R
ELY            PTCLDY    54  49  83 S10       30.22R
ELKO           CLEAR     63  43  48 CALM      30.09S
POCATELLO, ID  CLEAR     57  39  51 E5        30.02R
BURLEY         PTCLDY    60  46  59 SW8       29.98R
EVANSTON, WY   PTCLDY    61  37  41 S7        30.24S
ROCK SPRINGS   PTCLDY    65  33  30 SW6       30.19S

$$



USA.gov is the U.S. government's official web portal to all federal, state and local government web resources and services.